This is the latest recevied weather packets stored in our database for station/object KF0WJA. If no packets are shown the sender has not sent any weather packets the latest 10 day(s).
| Time | Temp. | Humidity | Pressure | Rain* | Wind** | Luminosity | Snow |
|---|---|---|---|---|---|---|---|
| 1787634141 | 23.33° C | 86% | 1017 hPa | 0 mm | - | 0 W/m² | - |
| 1787633837 | 23.33° C | 86% | 1017 hPa | 0 mm | - | 0 W/m² | - |
| 1787633533 | 23.33° C | 86% | 1017 hPa | 0 mm | - | 0 W/m² | - |
| 1787633228 | 23.33° C | 86% | 1017 hPa | 0 mm | - | 0 W/m² | - |
| 1787632924 | 23.33° C | 85% | 1016.9 hPa | 0 mm | - | 0 W/m² | - |
| 1787632619 | 23.33° C | 86% | 1016.9 hPa | 0 mm | - | 0 W/m² | - |
| 1787632314 | 23.33° C | 86% | 1017.1 hPa | 0 mm | - | 0 W/m² | - |
| 1787632009 | 23.33° C | 86% | 1017.1 hPa | 0 mm | - | 0 W/m² | - |
| 1787631705 | 22.78° C | 87% | 1017 hPa | 0 mm | - | 0 W/m² | - |
| 1787631402 | 22.78° C | 87% | 1016.9 hPa | 0 mm | - | 0 W/m² | - |
| 1787631097 | 23.33° C | 85% | 1017.3 hPa | 0 mm | - | 0 W/m² | - |
| 1787630796 | 23.89° C | 84% | 1017.2 hPa | 0 mm | - | 0 W/m² | - |
| 1787630492 | 23.89° C | 84% | 1017.1 hPa | 0 mm | - | 0 W/m² | - |
| 1787630191 | 23.89° C | 84% | 1017 hPa | 0 mm | - | 0 W/m² | - |
| 1787629887 | 24.44° C | 83% | 1017 hPa | 0 mm | - | 0 W/m² | - |
| 1787629587 | 24.44° C | 82% | 1017.2 hPa | 0 mm | - | 0 W/m² | - |
| 1787629284 | 24.44° C | 82% | 1017.4 hPa | 0 mm | - | 0 W/m² | - |
| 1787628979 | 24.44° C | 82% | 1017 hPa | 0 mm | - | 0 W/m² | - |
| 1787628675 | 24.44° C | 82% | 1017 hPa | 0 mm | - | 0 W/m² | - |
| 1787628370 | 24.44° C | 82% | 1017 hPa | 0 mm | - | 0 W/m² | - |
| 1787628065 | 24.44° C | 82% | 1016.9 hPa | 0 mm | - | 0 W/m² | - |
| 1787627761 | 24.44° C | 82% | 1017.2 hPa | 0 mm | - | 0 W/m² | - |
| 1787627457 | 24.44° C | 82% | 1017 hPa | 0 mm | - | 0 W/m² | - |
| 1787627156 | 25° C | 82% | 1017.1 hPa | 0 mm | - | 0 W/m² | - |
| 1787626854 | 25° C | 82% | 1017.1 hPa | 0 mm | - | 0 W/m² | - |
* Rain latest hour (hover to see other rain measurements)
** Current wind speed in m/s (hover to see current wind gust speed)